DW2227 Weather Reports


Display with metric or nautical units.
time (UTC)temp
F
wind
direction
speed
MPH
gust
MPH
rain 1hr
in
rain 24hr
in
rain mn
in
humidity
%
barometer
mb
20260903021326 81 86 0.0 0.0 0.00 0.00 0.00 85 1012.6
20260903020820 82 86 0.0 0.0 0.00 0.00 0.00 84 1012.7
20260903020316 82 86 0.0 0.0 0.00 0.00 0.00 84 1012.5
20260903015831 82 86 0.0 0.0 0.00 0.00 0.00 84 1012.6
20260903015326 82 86 0.0 0.0 0.00 0.00 0.00 84 1012.6
20260903014820 82 86 0.0 0.0 0.00 0.00 0.00 84 1012.5
20260903014317 83 86 0.0 0.0 0.00 0.00 0.00 83 1012.5
20260903013832 83 86 0.0 0.0 0.00 0.00 0.00 83 1012.5
20260903013327 83 86 0.0 0.0 0.00 0.00 0.00 83 1012.4
20260903012824 83 86 0.0 0.0 0.00 0.00 0.00 82 1012.3
20260903012317 84 86 0.0 0.0 0.00 0.00 0.00 82 1012.2
20260903011832 84 86 0.0 0.0 0.00 0.00 0.00 82 1012.3
20260903011327 84 86 0.0 0.0 0.00 0.00 0.00 81 1012.3
20260903010842 85 86 0.0 0.0 0.00 0.00 0.00 81 1012.3
20260903010334 85 86 0.0 0.0 0.00 0.00 0.00 80 1012.3
20260903005828 85 86 0.0 0.0 0.00 0.00 0.00 80 1012.2
20260903005323 85 86 0.0 0.0 0.00 0.00 0.00 79 1012.3
20260903004818 86 86 0.0 0.0 0.00 0.00 0.00 79 1012.3
20260903004333 86 86 0.0 0.0 0.00 0.00 0.00 78 1012.3
20260903003829 86 86 0.0 0.0 0.00 0.00 0.00 78 1012.3
20260903003322 87 86 0.0 0.0 0.00 0.00 0.00 77 1012.3
20260903002833 87 86 0.0 0.0 0.00 0.00 0.00 77 1012.3
20260903002327 87 86 0.0 0.0 0.00 0.00 0.00 77 1012.2
20260903001823 88 86 0.0 0.0 0.00 0.00 0.00 76 1012.3
20260903001338 88 86 0.0 0.0 0.00 0.00 0.00 76 1012.3
20260903000829 88 86 0.0 0.0 0.00 0.00 0.00 75 1012.3
20260903000325 88 86 0.0 0.0 0.00 0.00 0.00 75 1012.3
20260902235817 89 86 0.0 0.0 0.00 0.00 0.00 75 1012.3
20260902235329 89 86 0.0 0.0 0.00 0.00 0.00 74 1012.3
20260902234843 89 86 0.0 0.0 0.00 0.00 0.00 74 1012.2
20260902234331 89 86 0.0 0.0 0.00 0.00 0.00 73 1012.3
20260902233823 90 86 0.0 0.0 0.00 0.00 0.00 73 1012.3
20260902233317 90 86 0.0 0.0 0.00 0.00 0.00 72 1012.4
20260902232831 90 86 0.0 0.0 0.00 0.00 0.00 71 1012.4
20260902232326 90 86 0.0 0.0 0.00 0.00 0.00 70 1012.4
20260902231840 90 86 0.0 0.0 0.00 0.00 0.00 69 1012.6
20260902231333 90 86 0.0 0.0 0.00 0.00 0.00 69 1012.4
20260902230827 91 86 0.0 0.0 0.00 0.00 0.00 68 1012.5
20260902230322 91 86 0.0 0.0 0.00 0.00 0.00 67 1012.5
20260902225816 91 86 0.0 0.0 0.00 0.00 0.00 67 1012.4
20260902225332 91 86 0.0 1.0 0.00 0.00 0.00 66 1012.5
20260902224826 91 86 0.0 2.0 0.00 0.00 0.00 65 1012.5
20260902224321 92 72 0.0 2.0 0.00 0.00 0.00 64 1012.5
20260902223835 92 127 0.0 2.0 0.00 0.00 0.00 64 1012.5
20260902223348 92 5 0.0 2.0 0.00 0.00 0.00 63 1012.6
20260902222822 92 240 0.0 2.0 0.00 0.00 0.00 63 1012.6
20260902222317 93 153 0.0 2.0 0.00 0.00 0.00 62 1012.5
20260902221831 93 55 0.0 2.0 0.00 0.00 0.00 62 1012.6
20260902221327 93 117 0.0 2.0 0.00 0.00 0.00 61 1012.6
20260902220823 93 157 0.0 2.0 0.00 0.00 0.00 60 1012.6
20260902220337 94 86 0.0 1.0 0.00 0.00 0.00 61 1012.7
20260902215832 94 38 0.0 1.0 0.00 0.00 0.00 61 1012.7
20260902215325 94 16 0.0 1.0 0.00 0.00 0.00 60 1012.7
20260902214820 95 331 0.0 1.0 0.00 0.00 0.00 61 1012.7
20260902214316 95 295 0.0 4.0 0.00 0.00 0.00 58 1012.8
20260902213832 95 65 1.0 4.0 0.00 0.00 0.00 57 1012.8
20260902213347 95 36 0.0 3.0 0.00 0.00 0.00 58 1012.8
20260902212822 95 233 0.0 2.0 0.00 0.00 0.00 57 1012.8
20260902212338 95 96 1.0 2.0 0.00 0.00 0.00 56 1012.8
20260902211827 95 225 0.0 2.0 0.00 0.00 0.00 61 1012.8
20260902211324 95 44 0.0 2.0 0.00 0.00 0.00 58 1012.8
20260902210816 95 273 0.0 2.0 0.00 0.00 0.00 58 1012.8
20260902210331 96 300 0.0 2.0 0.00 0.00 0.00 57 1012.9
20260902205826 96 145 0.0 3.0 0.00 0.00 0.00 58 1012.8
20260902205321 96 118 1.0 4.0 0.00 0.00 0.00 56 1012.9
20260902204856 96 53 1.0 4.0 0.00 0.00 0.00 56 1012.9
20260902204351 96 302 1.0 3.0 0.00 0.00 0.00 55 1013.0
20260902203825 96 137 0.0 3.0 0.00 0.00 0.00 57 1013.0
20260902203340 96 92 1.0 4.0 0.00 0.00 0.00 56 1012.9
20260902202833 96 336 0.0 4.0 0.00 0.00 0.00 56 1012.9
20260902202328 96 226 1.0 3.0 0.00 0.00 0.00 56 1012.9
20260902201843 96 46 0.0 2.0 0.00 0.00 0.00 57 1012.9
20260902201331 96 259 0.0 6.0 0.00 0.00 0.00 55 1012.9
20260902200823 96 336 1.0 6.0 0.00 0.00 0.00 55 1013.0
20260902200318 96 205 1.0 4.0 0.00 0.00 0.00 55 1013.2
20260902195832 96 282 1.0 2.0 0.00 0.00 0.00 55 1013.1
20260902195327 97 107 0.0 4.0 0.00 0.00 0.00 55 1013.1
20260902194841 97 145 1.0 4.0 0.00 0.00 0.00 54 1013.2
20260902194333 97 255 0.0 2.0 0.00 0.00 0.00 60 1013.3
20260902193846 96 360 1.0 3.0 0.00 0.00 0.00 54 1013.3
20260902193319 96 250 1.0 5.0 0.00 0.00 0.00 53 1013.4
20260902192848 96 19 1.0 5.0 0.00 0.00 0.00 52 1013.4
20260902192323 96 273 1.0 3.0 0.00 0.00 0.00 53 1013.3
20260902191817 96 49 1.0 3.0 0.00 0.00 0.00 54 1013.4
20260902191332 95 199 1.0 3.0 0.00 0.00 0.00 54 1013.4
20260902190826 96 14 1.0 3.0 0.00 0.00 0.00 52 1013.4
20260902190320 96 306 1.0 4.0 0.00 0.00 0.00 54 1013.6
20260902185835 96 150 2.0 4.0 0.00 0.00 0.00 53 1013.7
20260902185329 96 355 0.0 3.0 0.00 0.00 0.00 55 1013.7
20260902184844 96 40 1.0 4.0 0.00 0.00 0.00 57 1013.8
20260902184338 95 173 0.0 4.0 0.00 0.00 0.00 56 1013.7
20260902183832 95 355 1.0 3.0 0.00 0.00 0.00 54 1013.8
20260902183346 94 327 1.0 3.0 0.00 0.00 0.00 57 1013.9
20260902182839 94 252 0.0 3.0 0.00 0.00 0.00 58 1013.9
20260902182332 94 326 1.0 4.0 0.00 0.00 0.00 57 1013.9
20260902181827 94 329 2.0 6.0 0.00 0.00 0.00 53 1014.1
20260902181322 95 19 1.0 6.0 0.00 0.00 0.00 53 1014.0
20260902180835 94 241 1.0 3.0 0.00 0.00 0.00 56 1014.1
20260902180331 94 230 1.0 4.0 0.00 0.00 0.00 54 1014.1
20260902175844 95 230 1.0 4.0 0.00 0.00 0.00 57 1014.1
20260902175317 94 327 1.0 3.0 0.00 0.00 0.00 57 1014.2
20260902174851 94 157 0.0 3.0 0.00 0.00 0.00 55 1014.3
20260902174322 94 258 1.0 4.0 0.00 0.00 0.00 54 1014.4
20260902173818 94 313 1.0 4.0 0.00 0.00 0.00 58 1014.4
20260902173329 94 234 1.0 4.0 0.00 0.00 0.00 57 1014.5
20260902172825 94 282 1.0 4.0 0.00 0.00 0.00 58 1014.4
20260902172319 94 275 1.0 3.0 0.00 0.00 0.00 56 1014.4
20260902171831 94 243 0.0 4.0 0.00 0.00 0.00 63 1014.4
20260902171346 93 36 0.0 4.0 0.00 0.00 0.00 60 1014.4
20260902170818 93 310 1.0 3.0 0.00 0.00 0.00 59 1014.6
20260902170332 93 74 1.0 3.0 0.00 0.00 0.00 59 1014.6
20260902165827 92 239 0.0 3.0 0.00 0.00 0.00 61 1014.7
20260902165322 92 273 1.0 3.0 0.00 0.00 0.00 62 1014.6
20260902164818 91 279 0.0 3.0 0.00 0.00 0.00 61 1014.7
20260902164332 91 314 1.0 3.0 0.00 0.00 0.00 63 1014.7
20260902163826 91 279 0.0 5.0 0.00 0.00 0.00 65 1014.6
20260902163321 90 200 1.0 5.0 0.00 0.00 0.00 65 1014.7
20260902162816 90 284 0.0 4.0 0.00 0.00 0.00 65 1014.7
20260902162331 90 269 1.0 4.0 0.00 0.00 0.00 65 1014.6
20260902161824 90 144 0.0 1.0 0.00 0.00 0.00 70 1014.6
20260902161319 89 144 0.0 1.0 0.00 0.00 0.00 68 1014.6
20260902160832 89 132 0.0 1.0 0.00 0.00 0.00 69 1014.6
20260902160325 88 308 0.0 1.0 0.00 0.00 0.00 71 1014.6
20260902155839 88 265 0.0 1.0 0.00 0.00 0.00 72 1014.6
20260902155331 87 265 0.0 1.0 0.00 0.00 0.00 71 1014.7
20260902154825 87 265 0.0 1.0 0.00 0.00 0.00 72 1014.6
20260902154341 87 265 0.0 3.0 0.00 0.00 0.00 71 1014.6
20260902153853 86 64 0.0 3.0 0.00 0.00 0.00 74 1014.7
20260902153326 86 325 0.0 1.0 0.00 0.00 0.00 72 1014.7
20260902152821 85 101 0.0 2.0 0.00 0.00 0.00 74 1014.7
20260902152332 85 95 0.0 1.0 0.00 0.00 0.00 73 1014.8
20260902151825 85 117 0.0 1.0 0.00 0.00 0.00 74 1014.7
20260902151318 84 355 0.0 2.0 0.00 0.00 0.00 72 1014.7
20260902150833 84 156 0.0 2.0 0.00 0.00 0.00 75 1014.7
20260902150328 84 214 0.0 1.0 0.00 0.00 0.00 75 1014.7
20260902145823 83 246 0.0 2.0 0.00 0.00 0.00 74 1014.7
20260902145317 83 184 0.0 2.0 0.00 0.00 0.00 73 1014.9
20260902144831 83 215 1.0 2.0 0.00 0.00 0.00 74 1014.9
20260902144324 82 90 0.0 3.0 0.00 0.00 0.00 76 1014.9
20260902143818 82 211 0.0 3.0 0.00 0.00 0.00 78 1015.0
20260902143333 82 65 0.0 2.0 0.00 0.00 0.00 78 1015.0
20260902142829 81 315 0.0 2.0 0.00 0.00 0.00 78 1015.1
20260902142324 81 309 0.0 3.0 0.00 0.00 0.00 77 1015.0
20260902141819 81 300 0.0 3.0 0.00 0.00 0.00 78 1015.0
20260902141333 80 300 0.0 3.0 0.00 0.00 0.00 78 1015.1
20260902140829 80 300 0.0 3.0 0.00 0.00 0.00 78 1015.1
20260902140322 80 252 0.0 3.0 0.00 0.00 0.00 79 1015.1
20260902135816 79 229 0.0 2.0 0.00 0.00 0.00 79 1015.2
20260902135332 79 180 0.0 2.0 0.00 0.00 0.00 81 1015.1
20260902134823 79 192 0.0 1.0 0.00 0.00 0.00 81 1015.2
20260902134335 79 192 0.0 1.0 0.00 0.00 0.00 82 1015.3
20260902133829 79 192 0.0 3.0 0.00 0.00 0.00 82 1015.1
20260902133343 78 189 1.0 4.0 0.00 0.00 0.00 81 1015.3
20260902132817 78 114 0.0 4.0 0.00 0.00 0.00 82 1015.2
20260902132332 78 296 2.0 4.0 0.00 0.00 0.00 84 1015.8
20260902131826 77 81 0.0 2.0 0.00 0.00 0.00 84 1015.2
20260902131320 77 158 0.0 3.0 0.00 0.00 0.00 84 1015.0
20260902130835 77 296 0.0 3.0 0.00 0.00 0.00 84 1015.4
20260902130329 76 39 0.0 0.0 0.00 0.00 0.00 84 1014.8
20260902125825 76 39 0.0 0.0 0.00 0.00 0.00 85 1014.6
20260902125339 76 69 0.0 0.0 0.00 0.00 0.00 85 1014.7
20260902124832 75 69 0.0 0.0 0.00 0.00 0.00 85 1014.6
20260902124327 75 172 0.0 0.0 0.00 0.00 0.00 86 1014.7
20260902123822 75 172 0.0 0.0 0.00 0.00 0.00 86 1014.7
20260902123318 75 172 0.0 0.0 0.00 0.00 0.00 86 1014.6
20260902122833 75 172 0.0 0.0 0.00 0.00 0.00 86 1014.6
20260902122327 74 172 0.0 0.0 0.00 0.00 0.00 86 1014.6
20260902121821 74 172 0.0 0.0 0.00 0.00 0.00 86 1014.7
20260902121350 74 172 0.0 0.0 0.00 0.00 0.00 86 1014.6
20260902120823 74 172 0.0 0.0 0.00 0.00 0.00 86 1014.6
20260902120319 74 172 0.0 0.0 0.00 0.00 0.00 87 1014.6
20260902115835 74 172 0.0 0.0 0.00 0.00 0.00 87 1014.5
20260902115328 74 172 0.0 0.0 0.00 0.00 0.00 87 1014.4
20260902114845 74 172 0.0 0.0 0.00 0.00 0.00 87 1014.4
20260902114318 73 172 0.0 0.0 0.00 0.00 0.00 87 1014.4
20260902113834 73 172 0.0 0.0 0.00 0.00 0.00 87 1014.4
20260902113328 73 172 0.0 0.0 0.00 0.00 0.00 87 1014.4
20260902112823 73 172 0.0 0.0 0.00 0.00 0.00 87 1014.3
20260902112336 73 172 0.0 0.0 0.00 0.00 0.00 87 1014.2
20260902111850 73 172 0.0 0.0 0.00 0.00 0.00 87 1014.3
20260902111323 73 172 0.0 0.0 0.00 0.00 0.00 88 1014.4
20260902110818 73 172 0.0 0.0 0.00 0.00 0.00 88 1014.3
20260902110333 73 172 0.0 0.0 0.00 0.00 0.00 88 1014.3
20260902105827 73 172 0.0 0.0 0.00 0.00 0.00 89 1014.2
20260902105320 72 172 0.0 0.0 0.00 0.00 0.00 89 1014.2
20260902104834 72 172 0.0 0.0 0.00 0.00 0.00 89 1014.1
20260902104329 72 172 0.0 0.0 0.00 0.00 0.00 89 1014.1
20260902103822 72 172 0.0 0.0 0.00 0.00 0.00 89 1014.2
20260902103336 72 172 0.0 0.0 0.00 0.00 0.00 89 1014.2
20260902102829 72 172 0.0 0.0 0.00 0.00 0.00 89 1014.3
20260902102324 72 172 0.0 0.0 0.00 0.00 0.00 89 1014.3
20260902101818 73 172 0.0 0.0 0.00 0.00 0.00 89 1014.4
20260902101333 73 172 0.0 0.0 0.00 0.00 0.00 89 1014.4
20260902100828 73 172 0.0 0.0 0.00 0.00 0.00 89 1014.4
20260902100320 73 172 0.0 0.0 0.00 0.00 0.00 89 1014.5
20260902095830 73 172 0.0 0.0 0.00 0.00 0.00 88 1014.6
20260902095325 73 172 0.0 0.0 0.00 0.00 0.00 88 1014.6
20260902094840 73 172 0.0 0.0 0.00 0.00 0.00 88 1014.5
20260902094330 74 172 0.0 0.0 0.00 0.00 0.00 88 1014.6
20260902093825 74 172 0.0 0.0 0.00 0.00 0.00 88 1014.6
20260902093321 74 172 0.0 0.0 0.00 0.00 0.00 88 1014.7
20260902092818 74 172 0.0 0.0 0.00 0.00 0.00 88 1014.7
20260902092332 74 172 0.0 0.0 0.00 0.00 0.00 87 1014.6
20260902091824 74 172 0.0 0.0 0.00 0.00 0.00 88 1014.6
20260902091321 74 172 0.0 0.0 0.00 0.00 0.00 88 1014.4
20260902090817 74 172 0.0 0.0 0.00 0.00 0.00 87 1014.3
20260902090333 74 172 0.0 0.0 0.00 0.00 0.00 88 1014.4
20260902085828 74 172 0.0 0.0 0.00 0.00 0.00 88 1014.3
20260902085323 74 172 0.0 0.0 0.00 0.00 0.00 88 1014.3
20260902084819 74 172 0.0 0.0 0.00 0.00 0.00 88 1014.3
20260902084334 74 172 0.0 0.0 0.00 0.00 0.00 88 1014.1
20260902083829 74 172 0.0 0.0 0.00 0.00 0.00 88 1014.2
20260902083345 74 172 0.0 0.0 0.00 0.00 0.00 88 1014.3
20260902082819 74 172 0.0 0.0 0.00 0.00 0.00 87 1014.2
20260902082354 74 172 0.0 0.0 0.00 0.00 0.00 87 1014.1
20260902081827 74 172 0.0 0.0 0.00 0.00 0.00 87 1014.1
20260902081318 74 172 0.0 0.0 0.00 0.00 0.00 87 1014.0
20260902080833 75 172 0.0 0.0 0.00 0.00 0.00 87 1014.1
20260902080327 75 172 0.0 0.0 0.00 0.00 0.00 87 1014.1
20260902075821 75 172 0.0 0.0 0.00 0.00 0.00 87 1014.1
20260902075336 75 172 0.0 0.0 0.00 0.00 0.00 87 1014.0
20260902074831 75 172 0.0 0.0 0.00 0.00 0.00 87 1013.9
20260902074326 75 172 0.0 0.0 0.00 0.00 0.00 86 1013.8
20260902073820 75 172 0.0 0.0 0.00 0.00 0.00 86 1013.9
20260902073333 75 172 0.0 0.0 0.00 0.00 0.00 86 1013.9
20260902072826 75 172 0.0 0.0 0.00 0.00 0.00 86 1013.8
20260902072321 75 172 0.0 0.0 0.00 0.00 0.00 86 1013.9
20260902071834 75 172 0.0 0.0 0.00 0.00 0.00 86 1013.9
20260902071328 76 172 0.0 0.0 0.00 0.00 0.00 86 1014.0
20260902070824 76 172 0.0 0.0 0.00 0.00 0.00 86 1013.9
20260902070319 76 117 0.0 0.0 0.00 0.00 0.00 85 1013.9
20260902065829 76 117 0.0 0.0 0.00 0.00 0.00 86 1014.0
20260902065343 76 117 0.0 0.0 0.00 0.00 0.00 86 1014.0
20260902064831 76 117 0.0 0.0 0.00 0.00 0.00 86 1014.0
20260902064325 76 117 0.0 0.0 0.00 0.00 0.00 86 1014.0
20260902063821 76 117 0.0 0.0 0.00 0.00 0.00 86 1014.0
20260902063317 76 117 0.0 0.0 0.00 0.00 0.00 87 1014.0
20260902062831 75 117 0.0 0.0 0.00 0.00 0.00 87 1014.0
20260902062326 75 117 0.0 0.0 0.00 0.00 0.00 87 1013.9
20260902061821 75 117 0.0 0.0 0.00 0.00 0.00 87 1013.8
20260902061355 75 117 0.0 0.0 0.00 0.00 0.00 87 1013.9
20260902060829 76 117 0.0 0.0 0.00 0.00 0.00 87 1013.8
20260902060322 76 117 0.0 0.0 0.00 0.00 0.00 87 1014.0
20260902055817 76 117 0.0 0.0 0.00 0.00 0.00 87 1014.1
20260902055331 76 117 0.0 0.0 0.00 0.00 0.00 87 1014.1
20260902054826 76 117 0.0 0.0 0.00 0.00 0.00 87 1014.1
20260902054320 76 117 0.0 0.0 0.00 0.00 0.00 87 1014.2
20260902053833 76 117 0.0 0.0 0.00 0.00 0.00 87 1014.1
20260902053328 76 117 0.0 0.0 0.00 0.00 0.00 87 1014.2
20260902052822 76 117 0.0 0.0 0.00 0.00 0.00 87 1014.2
20260902052336 76 117 0.0 0.0 0.00 0.00 0.00 87 1014.2
20260902051829 76 117 0.0 0.0 0.00 0.00 0.00 87 1014.3
20260902051324 76 117 0.0 0.0 0.00 0.00 0.00 87 1014.3
20260902050818 76 117 0.0 0.0 0.00 0.00 0.00 87 1014.3
20260902050332 76 117 0.0 0.0 0.00 0.00 0.00 87 1014.3
20260902045837 76 117 0.0 0.0 0.00 0.00 0.00 87 1014.3
20260902045331 76 117 0.0 0.0 0.00 0.00 0.00 87 1014.3
20260902044825 76 117 0.0 0.0 0.00 0.00 0.00 87 1014.3
20260902044321 76 117 0.0 0.0 0.00 0.00 0.00 87 1014.3
20260902043836 76 117 0.0 0.0 0.00 0.00 0.00 87 1014.3
20260902043346 77 117 0.0 0.0 0.00 0.00 0.00 87 1014.2
20260902042821 77 117 0.0 0.0 0.00 0.00 0.00 86 1014.3
20260902042318 77 117 0.0 0.0 0.00 0.00 0.00 86 1014.2
20260902041832 77 117 0.0 0.0 0.00 0.00 0.00 86 1014.2
20260902041327 77 117 0.0 0.0 0.00 0.00 0.00 86 1014.1
20260902040821 77 117 0.0 0.0 0.00 0.00 0.00 86 1014.2
20260902040319 77 117 0.0 0.0 0.00 0.00 0.00 86 1014.1
20260902035833 78 117 0.0 0.0 0.00 0.00 0.00 86 1014.1
20260902035329 78 117 0.0 0.0 0.00 0.00 0.00 86 1014.2
20260902034823 78 117 0.0 0.0 0.00 0.00 0.00 86 1014.0
20260902034354 78 117 0.0 0.0 0.00 0.00 0.00 86 1014.1
20260902033847 78 117 0.0 0.0 0.00 0.00 0.00 86 1014.0
20260902033342 78 117 0.0 0.0 0.00 0.00 0.00 86 1014.1
20260902032831 78 117 0.0 0.0 0.00 0.00 0.00 85 1014.1
20260902032325 78 117 0.0 0.0 0.00 0.00 0.00 86 1014.1
20260902031820 78 117 0.0 0.0 0.00 0.00 0.00 85 1014.1
20260902031336 78 117 0.0 0.0 0.00 0.00 0.00 85 1014.1
20260902030851 78 117 0.0 0.0 0.00 0.00 0.00 85 1014.2
20260902030326 79 117 0.0 0.0 0.00 0.00 0.00 85 1014.1
20260902025821 79 117 0.0 0.0 0.00 0.00 0.00 85 1014.2
20260902025318 79 117 0.0 0.0 0.00 0.00 0.00 85 1014.1
20260902024834 79 117 0.0 0.0 0.00 0.00 0.00 85 1014.1
20260902024329 79 117 0.0 0.0 0.00 0.00 0.00 85 1014.2
20260902023844 79 117 0.0 0.0 0.00 0.00 0.00 85 1014.1
20260902023318 79 117 0.0 0.0 0.00 0.00 0.00 85 1014.1
20260902022835 79 117 0.0 0.0 0.00 0.00 0.00 85 1014.1
20260902022330 79 117 0.0 0.0 0.00 0.00 0.00 85 1014.0
20260902021845 79 117 0.0 0.0 0.00 0.00 0.00 85 1014.1